THOR ABLESTAR DEB, 956

Orbit data source: Space-Track

THOR ABLESTAR DEB, 956 is space debris in LEO originally from a launch on Sun, 13 Dec 1964 UTC launched from the Air Force Western Test Range (AFWTR). Debris objects in space refer to the collection of defunct objects orbiting the Earth. Examples of debris include non-operational satellites, rocket bodies, and fragments generated from explosions, collisions, or faulty payload assembly.

Loading next visibility...
THOR ABLESTAR DEB details
Identifier
956, 1964-083B
Orbit
LEO
Last TLE update1 day ago
Origin
Flag of USUSN BuWeps (US)
ManufacturerUnknown
MissionSpacecraft
Bus & MotorUnknown
MassUnknown
Launch date (UTC)
1964-12-13 (60 years ago)
Launch vehicleUnknown
Launch site
Air Force Western Test Range (AFWTR)
Object type
Payload
Rocket body
Debris
Shape & HBRUnknown
Radar Cross SectionSmall (<0.1 m²)

Expand to show TLE details & history

TLE from 1 day ago
0 THOR ABLESTAR DEB
1 00956U 64083B   25017.71512497  .00000455  00000-0  52991-3 0  9995
2 00956  89.9368 172.4073 0025270 114.3924 259.3162 13.67184653985722
Epoch: 2025-01-17T17:09Z
Definitive object data (Epoch: 2025-01-17T17:09:46.797Z)
Latitude13.38845°
Longitude157.60249°
Altitude1,015.44 km
Speed7.343 km/s
True Right ascension11h 29m 41s
True Declination13° 18' 50"
Sunlit
Object was in full shadow at TLE epoch
Visualization TLE readout
Latitude-66.66974°
Longitude157.43513°
Altitude1,053.703 km
Speed7.315 km/s
Apparent Right ascension08h 05m 58s
Apparent Declination-60° 18' 29"
Sunlit
Object is in daylight
Visualization observer readout
Local Sidereal Time18:14:45
Azimuth210.961° SW
Elevation-63.312°
Doppler factor1
Orbital elements
Apogee altitude1,025.382 km
Perigee altitude988.059 km
Semi-major axis7,384.858 km
Eccentricity0.002527
Inclination89.9368°
RAAN172.4073°
Arg. of periapsis114.3924°
True anomaly259.03181°
Mean anomaly259.3162°
Eccentric anomaly259.17399°
Mean motion3.42003 °/min
BSTAR0.00052991
Orbital period105.26 mins
Loading maneuver chart data...

THOR ABLESTAR DEB Visibility forecast

Observer location: undefined°, undefined

Span
Click to sort rows by Start time (UTC) header in descending order
Start Az.
Max El. time (UTC)
Max El. Az.
Max El.
End time (UTC)
End Az.
11 mins2025-01-18 21:47:45.444Z19.296° NNE2025-01-18 21:52:45.444Z81.479° E33.331°2025-01-18 21:58:45.444Z155.539° SSE
9 mins2025-01-18 23:33:45.444Z333.361° NNW2025-01-18 23:37:45.444Z284.989° WNW25.622°2025-01-18 23:42:45.444Z228.145° WSW
9 mins2025-01-19 09:37:45.444Z133.326° SE2025-01-19 09:41:45.444Z80.594° E29.713°2025-01-19 09:46:45.444Z19.034° NNE
9 mins2025-01-19 11:22:45.444Z219.64° SW2025-01-19 11:26:45.444Z271.836° WNW29.352°2025-01-19 11:31:45.444Z335.297° NNW
|